Regional Weather Roundup
Issued by NWS

Home | Current Version | Previous Version | Text Only | Print | Product List | Glossary Off
Versions: 1 2 3 4 5 6 7 8 9 10 11 12 13 14 15 16 17 18 19 20 21 22 23 24 25 26 27 28 29 30 31 32 33 34 35 36 37 38 39 40 41 42 43 44 45 46 47 48 49 50

000
ASUS45 KSLC 270710
RWRUT

UTAH REGIONAL WEATHER ROUNDUP
NATIONAL WEATHER SERVICE SALT LAKE CITY UT
100 AM MDT MON APR 27 2015

UTZ001>011-023>025-270800-

NORTHERN UTAH

CITY           SKY/WX    TMP DP  RH WIND       PRES   REMARKS
BRIGHAM CITY   CLEAR     42  38  86 CALM      30.17R
HILL AFB       CLEAR     42  36  79 E8        30.15S
LOGAN          PTCLDY    40  36  86 NE3       30.17R
OGDEN          CLEAR     43  35  73 S6        30.15R
PROVO AIRPORT  MOCLDY    46  32  57 NW8       30.13S
SALT LAKE CITY MOCLDY    47  36  65 NW8       30.14R
VERNAL         CLOUDY    48  32  53 SE3       30.04R
WENDOVER       CLEAR     48  16  27 NW15G24   30.18F
HEBER CITY     CLOUDY    43  32  65 NE7       30.14F
WEST JORDAN    CLOUDY    45  37  76 NW6       30.15R

$$

UTZ012>022-026-027-270800-

SOUTHERN/CENTRAL UTAH

CITY           SKY/WX    TMP DP  RH WIND       PRES   REMARKS
BLANDING       PTCLDY    44  35  68 NW9       30.00R
BRYCE CANYON   CLEAR     32  25  75 N16       30.11S WCI  21
CEDAR CITY     CLEAR     39  29  67 N8        30.11R WCI  33
DELTA          PTCLDY    40  32  74 N6        30.15R
HANKSVILLE     MOCLDY    50  30  46 NW8       30.02R
MILFORD        CLEAR     36  30  79 N8        30.13R WCI  30
MOAB/CYNLANDS  CLOUDY    48  42  80 NW7       29.96R
PRICE          NOT AVBL
ST GEORGE      PTSUNNY   57  27  30 NE18G28   30.02S

$$

REGIONAL REPORTS     COLORADO/ARIZONA

CITY           SKY/WX    TMP DP  RH WIND       PRES   REMARKS
CRAIG, CO      CLOUDY    41  38  89 W3        30.04S
GRAND JUNCTION CLOUDY    46  41  82 NW3       29.96S
RIFLE          PTCLDY    43  38  82 CALM      29.99S
MONTROSE       CLOUDY    44  42  93 CALM      30.00R
CORTEZ         CLEAR     41  38  89 CALM      29.92R
PAGE, AZ       CLEAR     51  28  41 W8        29.98R
GRAND CANYON   CLEAR     30  26  85 N5        30.03S WCI  25
KINGMAN        CLEAR     47  28  47 N9        29.99R
FLAGSTAFF      CLEAR     35  27  72 NW3       30.01R

$$

REGIONAL REPORTS    NEVADA/IDAHO/WYOMING

CITY           SKY/WX    TMP DP  RH WIND       PRES   REMARKS
LAS VEGAS, NV  PTCLDY    64  18  17 NW15      29.98R
ELY            CLEAR     31  19  61 N5        30.22R WCI  26
ELKO           CLEAR     34  24  67 CALM      30.24S
POCATELLO, ID  CLOUDY    46  36  68 SW10      30.22R
BURLEY         CLOUDY    43  20  39 SW9       30.19R
EVANSTON, WY   CLOUDY    34  30  85 NW5       30.17R WCI  30
ROCK SPRINGS   CLOUDY    36  33  89 NE12      30.13S WCI  28
KEMMERER       MIX PCPN  34  32  93 NW6       30.16R WCI  29

$$


USA.gov is the U.S. government's official web portal to all federal, state and local government web resources and services.